User: anonymous   Login
Location: 10033 Water Well
(34.0865°N, 106.8959°W)
Time: 00:33:36
(UTC+00:00)
Language:

IUS-18 SRM-1 - Orbit

View from above orbital plane
View from above orbital plane
View from above satellite
View from above satellite

Ground track
Ground track

The orbit is defined by the following mean orbital elements,

1 19970U          26073.47684147 +.00000000 +00000-0 +16196-2 0 00003
2 19970  27.9699 282.2504 5898689 102.2788 326.0412  4.17442610    01
Epoch (UTC): 14 March 2026 11:26:39
Eccentricity: 0.5898689
inclination: 27.9699°
perigee height: 304 km
apogee height: 19526 km
right ascension of ascending node: 282.2504°
argument of perigee: 102.2788°
revolutions per day: 4.17442610
mean anomaly at epoch: 326.0412°

The dashed part of the orbit path shows where the satellite is in the earth's shadow,  

DLR